Flag for Germany Weather past 2 weeks in Kaiserslautern, Rhineland-Palatinate, Germany

50 °F

Light rain. Overcast.

Feels Like: 44 °F
Forecast: 49 / 51 °F
Wind: 18 mph from Southwest

Location: Ramstein

Current Time: Nov 30, 2015 at 6:05:43 PM

Latest Report: Nov 30, 2015 at 5:00 PM

Visibility: N/A

Pressure: 30.12 "Hg

Humidity: 82%

Dew point: 45 °F

Location of KaiserslauternLocation

Historic Weather in Kaiserslautern — Graph


Kaiserslautern temperature yesterday

Maximum temperature yesterday: 51 °F (at 10:58 PM)
Minimum temperature yesterday: 40 °F (at 4:58 AM)
Average temperature yesterday: 45 °F

Past Weeks' High & Low Weather Summary

High59 °F (Nov 18, 1:58 AM)100% (Nov 17, 3:04 AM)30.33 "Hg (Nov 17, 3:04 AM)
Low25 °F (Nov 24, 1:58 AM)58% (Nov 18, 7:58 AM)29.40 "Hg (Nov 21, 12:03 PM)
Average42 °F88%29.97 "Hg
* Reported Nov 15 5:58 PM — Nov 30 5:00 PM, Kaiserslautern, Weather by CustomWeather, © 2015

Note: Actual official high and low records may vary slightly from our data, if they occured in-between our weather recording intervals... More about our weather records


Kaiserslautern weather history for previous 24 hours

Time TempWeatherWind HumidityBarometerVisibility
5:00 PM
Mon, Nov 30
50 °FLight rain. Overcast.18 mph82%30.12 "HgN/A
4:58 PM51 °FMostly cloudy.16 mph75%30.14 "HgN/A
3:58 PM52 °FOvercast.16 mph72%30.13 "HgN/A
3:00 PM50 °FPartly sunny.12 mph82%30.13 "HgN/A
2:03 PM50 °FPartly sunny.13 mph88%30.15 "HgN/A
1:58 PM49 °FLight rain. Mostly cloudy.14 mph87%30.17 "HgN/A
12:58 PM49 °FLight rain. Fog.17 mph93%30.19 "Hg4 mi
12:04 PM48 °FLight rain. Fog.18 mph100%30.17 "Hg3 mi
11:58 AM48 °FLight rain. Fog.14 mph100%30.20 "Hg6 mi
10:58 AM49 °FLight rain. Fog.16 mph93%30.21 "Hg6 mi
9:58 AM49 °FLight rain. Fog.16 mph93%30.21 "Hg6 mi
8:59 AM48 °FLight rain. Overcast.18 mph87%30.19 "HgN/A
8:58 AM49 °FLight rain. Overcast.20 mph87%30.21 "HgN/A
7:58 AM49 °FOvercast.17 mph86%30.19 "HgN/A
7:01 AM48 °FLight rain. Mostly cloudy.18 mph94%30.15 "HgN/A
6:58 AM48 °FLight rain. Mostly cloudy.17 mph94%30.17 "HgN/A
6:03 AM48 °FMostly cloudy.14 mph94%30.13 "HgN/A
4:58 AM49 °FLight rain. Mostly cloudy.14 mph90%30.14 "HgN/A
3:58 AM49 °FLight rain. Overcast.14 mph87%30.12 "HgN/A
2:58 AM51 °FOvercast.14 mph70%30.10 "HgN/A
1:58 AM50 °FLight rain. Overcast.23 mph74%30.09 "HgN/A
12:58 AM50 °FOvercast.16 mph71%30.08 "HgN/A
10:58 PM
Sun, Nov 29
51 °FOvercast.16 mph72%30.08 "HgN/A
9:58 PM49 °FMostly cloudy.12 mph81%30.07 "HgN/A
8:58 PM49 °FPassing clouds.14 mph85%30.07 "HgN/A
7:58 PM48 °FLight rain. Mostly cloudy.17 mph88%30.08 "HgN/A
6:58 PM48 °FPassing clouds.16 mph87%30.06 "HgN/A
6:02 PM48 °FMostly cloudy.20 mph87%30.02 "HgN/A
Weather by CustomWeather, © 2015

See weather overviewHow to use our weather pages